TimeEDT,TemperatureF,Dew PointF,Humidity,Sea Level PressureIn,VisibilityMPH,Wind Direction,Wind SpeedMPH,Gust SpeedMPH,PrecipitationIn,Events,Conditions,WindDirDegrees,DateUTC
12:53 AM,69.1,66.0,90,30.02,8.0,Calm,Calm,-,N/A,,Clear,0,2013-09-08 04:53:00
1:53 AM,66.9,64.9,93,30.01,7.0,Calm,Calm,-,N/A,,Clear,0,2013-09-08 05:53:00
2:53 AM,66.9,64.9,93,29.99,7.0,Calm,Calm,-,N/A,,Clear,0,2013-09-08 06:53:00
3:53 AM,66.9,64.9,93,29.99,10.0,Calm,Calm,-,N/A,,Clear,0,2013-09-08 07:53:00
4:53 AM,66.0,64.0,93,29.98,10.0,Calm,Calm,-,N/A,,Clear,0,2013-09-08 08:53:00
5:53 AM,64.9,63.0,93,29.98,8.0,Calm,Calm,-,N/A,,Clear,0,2013-09-08 09:53:00
6:53 AM,64.9,63.0,93,30.00,6.0,Calm,Calm,-,N/A,,Clear,0,2013-09-08 10:53:00
7:53 AM,64.9,63.0,93,30.01,7.0,Calm,Calm,-,N/A,,Clear,0,2013-09-08 11:53:00
8:53 AM,70.0,66.0,87,30.02,7.0,Calm,Calm,-,N/A,,Clear,0,2013-09-08 12:53:00
9:53 AM,73.9,66.9,79,30.02,10.0,Calm,Calm,-,N/A,,Clear,0,2013-09-08 13:53:00
10:53 AM,80.1,68.0,67,30.01,10.0,Calm,Calm,-,N/A,,Clear,0,2013-09-08 14:53:00
11:53 AM,84.9,69.1,59,30.01,10.0,Variable,4.6,-,N/A,,Clear,0,2013-09-08 15:53:00
12:53 PM,86.0,68.0,55,30.00,10.0,NW,9.2,-,N/A,,Unknown,310,2013-09-08 16:53:00
1:53 PM,88.0,66.9,49,30.00,10.0,NNW,5.8,-,N/A,,Scattered Clouds,340,2013-09-08 17:53:00
2:53 PM,88.0,66.9,49,29.97,10.0,NW,8.1,-,N/A,,Partly Cloudy,310,2013-09-08 18:53:00
3:53 PM,89.1,66.9,48,29.95,10.0,WNW,8.1,-,N/A,,Mostly Cloudy,290,2013-09-08 19:53:00
4:53 PM,88.0,66.0,48,29.94,10.0,NW,5.8,-,N/A,,Clear,310,2013-09-08 20:53:00
5:53 PM,84.9,66.0,53,29.95,10.0,WNW,5.8,-,N/A,,Clear,290,2013-09-08 21:53:00
6:53 PM,82.9,69.1,63,29.94,10.0,Calm,Calm,-,N/A,,Partly Cloudy,0,2013-09-08 22:53:00
7:53 PM,80.1,68.0,67,29.95,10.0,Calm,Calm,-,N/A,,Clear,0,2013-09-08 23:53:00
8:53 PM,75.0,70.0,84,29.95,9.0,NE,3.5,-,N/A,,Clear,40,2013-09-09 00:53:00
9:53 PM,75.0,69.1,82,29.97,8.0,Calm,Calm,-,N/A,,Clear,0,2013-09-09 01:53:00
10:53 PM,73.0,69.1,87,29.98,8.0,Calm,Calm,-,N/A,,Clear,0,2013-09-09 02:53:00
11:53 PM,73.0,69.1,87,29.98,7.0,Calm,Calm,-,N/A,,Clear,0,2013-09-09 03:53:00